• In Deutschland
  • Länderverzeichnis
  • Für 7 Tage
  • Wassertemperatur
  • Satellitenkarten
  • Wetterkarte
  • Widgets
  • user-avatar
    Anmelden

    Stündliche Wetter Innsbruck

    Heute, 12 Dezember, Dienstag

    Zeit Temperatur Niederschläge Wind Luftdruck Luftfeuchtigkeit
    00:00 -5°C° 2,5 mm 3 m/S 579 mmHg 96%
    01:00 -4°C° 2,5 mm 2 m/S 579 mmHg 96%
    02:00 -4°C° 1,5 mm 2 m/S 580 mmHg 97%
    03:00 -4°C° 1,5 mm 2 m/S 580 mmHg 97%
    04:00 -4°C° 1,5 mm 2 m/S 581 mmHg 97%
    05:00 -5°C° 0,9 mm 2 m/S 582 mmHg 96%
    06:00 -5°C° 0,9 mm 2 m/S 583 mmHg 96%
    07:00 -5°C° 0,9 mm 2 m/S 584 mmHg 96%
    08:00 -6°C° 0,6 mm 2 m/S 584 mmHg 96%
    09:00 -6°C° 0,6 mm 2 m/S 585 mmHg 96%
    10:00 -6°C° 0,6 mm 2 m/S 586 mmHg 95%
    11:00 -6°C° 0,4 mm 2 m/S 587 mmHg 94%
    12:00 -4°C° 0,4 mm 1 m/S 587 mmHg 94%
    13:00 -6°C° 0,4 mm 1 m/S 588 mmHg 93%
    14:00 -6°C° 0,4 mm 1 m/S 588 mmHg 94%
    15:00 -7°C° 0,4 mm 1 m/S 588 mmHg 95%
    16:00 -8°C° 0,4 mm 1 m/S 588 mmHg 96%
    17:00 -8°C° 0,4 mm 1 m/S 588 mmHg 96%
    18:00 -9°C° 0,4 mm 1 m/S 588 mmHg 96%
    19:00 -12°C° 0,4 mm 2 m/S 589 mmHg 96%
    20:00 -12°C° 0,2 mm 2 m/S 589 mmHg 95%
    21:00 -12°C° 0,2 mm 2 m/S 590 mmHg 94%
    22:00 -12°C° 0,2 mm 2 m/S 590 mmHg 94%
    23:00 -12°C° 0,2 mm 2 m/S 590 mmHg 93%

    Morgen, 13 Dezember, Mittwoch

    Zeit Temperatur Niederschläge Wind Luftdruck Luftfeuchtigkeit
    00:00 -13°C° 0,2 mm 2 m/S 590 mmHg 93%
    01:00 -13°C° 0,2 mm 2 m/S 590 mmHg 92%
    02:00 -14°C° 0 mm 2 m/S 590 mmHg 92%
    03:00 -15°C° 0 mm 2 m/S 589 mmHg 91%
    04:00 -14°C° 0 mm 1 m/S 589 mmHg 91%
    05:00 -15°C° 0 mm 1 m/S 589 mmHg 89%
    06:00 -15°C° 0 mm 1 m/S 589 mmHg 87%
    07:00 -16°C° 0 mm 1 m/S 589 mmHg 85%
    08:00 -14°C° 0 mm 1 m/S 590 mmHg 82%
    09:00 -12°C° 0 mm 1 m/S 590 mmHg 79%
    10:00 -11°C° 0 mm 1 m/S 591 mmHg 77%
    11:00 -10°C° 0 mm 2 m/S 591 mmHg 75%
    12:00 -8°C° 0 mm 2 m/S 591 mmHg 74%
    13:00 -7°C° 0 mm 2 m/S 591 mmHg 72%
    14:00 -8°C° 0 mm 2 m/S 590 mmHg 75%
    15:00 -8°C° 0 mm 2 m/S 590 mmHg 78%
    16:00 -10°C° 0 mm 3 m/S 589 mmHg 81%
    17:00 -12°C° 0 mm 3 m/S 589 mmHg 80%
    18:00 -12°C° 0 mm 3 m/S 588 mmHg 78%
    19:00 -13°C° 0 mm 3 m/S 588 mmHg 77%
    20:00 -12°C° 0 mm 3 m/S 588 mmHg 76%
    21:00 -12°C° 0 mm 3 m/S 588 mmHg 75%
    22:00 -12°C° 0 mm 3 m/S 588 mmHg 74%
    23:00 -12°C° 0 mm 3 m/S 587 mmHg 73%

    übermorgen, 14 Dezember, Donnerstag

    Zeit Temperatur Niederschläge Wind Luftdruck Luftfeuchtigkeit
    00:00 -12°C° 0 mm 3 m/S 587 mmHg 71%
    01:00 -12°C° 0 mm 3 m/S 587 mmHg 70%
    02:00 -10°C° 0 mm 3 m/S 586 mmHg 71%
    03:00 -10°C° 0 mm 3 m/S 586 mmHg 73%
    04:00 -9°C° 0 mm 3 m/S 586 mmHg 74%
    05:00 -9°C° 0,1 mm 3 m/S 586 mmHg 75%
    06:00 -9°C° 0,1 mm 3 m/S 586 mmHg 76%
    07:00 -9°C° 0,1 mm 3 m/S 586 mmHg 77%
    08:00 -7°C° 0,1 mm 2 m/S 586 mmHg 79%
    09:00 -7°C° 0,1 mm 2 m/S 587 mmHg 81%
    10:00 -6°C° 0,1 mm 2 m/S 587 mmHg 84%
    11:00 -6°C° 0,7 mm 2 m/S 587 mmHg 85%
    12:00 -3°C° 0,7 mm 1 m/S 586 mmHg 87%
    13:00 -3°C° 0,7 mm 1 m/S 586 mmHg 89%
    14:00 -4°C° 0,5 mm 1 m/S 586 mmHg 91%
    15:00 -4°C° 0,5 mm 1 m/S 585 mmHg 92%
    16:00 -4°C° 0,5 mm 1 m/S 584 mmHg 93%
    17:00 -7°C° 0,2 mm 2 m/S 584 mmHg 92%
    18:00 -7°C° 0,2 mm 2 m/S 583 mmHg 91%
    19:00 -8°C° 0,2 mm 2 m/S 583 mmHg 90%
    20:00 -8°C° 0,2 mm 3 m/S 583 mmHg 89%
    21:00 -8°C° 0,2 mm 3 m/S 582 mmHg 88%
    22:00 -8°C° 0,2 mm 3 m/S 582 mmHg 87%
    23:00 -8°C° 1 mm 3 m/S 582 mmHg 90%

    15 Dezember, Freitag

    Zeit Temperatur Niederschläge Wind Luftdruck Luftfeuchtigkeit
    00:00 -8°C° 1 mm 3 m/S 582 mmHg 92%
    01:00 -8°C° 1 mm 2 m/S 582 mmHg 95%
    02:00 -8°C° 0,9 mm 2 m/S 582 mmHg 95%
    03:00 -8°C° 0,9 mm 2 m/S 582 mmHg 95%
    04:00 -8°C° 0,9 mm 2 m/S 582 mmHg 95%
    05:00 -9°C° 0,5 mm 2 m/S 582 mmHg 95%
    06:00 -9°C° 0,5 mm 2 m/S 582 mmHg 94%
    07:00 -9°C° 0,5 mm 2 m/S 582 mmHg 94%
    08:00 -8°C° 0,2 mm 1 m/S 582 mmHg 92%
    09:00 -8°C° 0,2 mm 1 m/S 582 mmHg 91%
    10:00 -7°C° 0,2 mm 1 m/S 583 mmHg 89%
    11:00 -7°C° 0,1 mm 1 m/S 582 mmHg 88%
    12:00 -6°C° 0,1 mm 1 m/S 582 mmHg 87%
    13:00 -6°C° 0,1 mm 1 m/S 582 mmHg 86%
    14:00 -6°C° 0,2 mm 1 m/S 582 mmHg 88%
    15:00 -7°C° 0,2 mm 1 m/S 581 mmHg 90%
    16:00 -8°C° 0,2 mm 1 m/S 581 mmHg 92%
    17:00 -9°C° 0,1 mm 1 m/S 581 mmHg 92%
    18:00 -10°C° 0,1 mm 1 m/S 580 mmHg 91%
    19:00 -10°C° 0,1 mm 1 m/S 580 mmHg 91%
    20:00 -11°C° 0 mm 1 m/S 580 mmHg 90%
    21:00 -13°C° 0 mm 2 m/S 580 mmHg 88%
    22:00 -13°C° 0 mm 2 m/S 580 mmHg 87%
    23:00 -13°C° 0,2 mm 2 m/S 581 mmHg 87%

    16 Dezember, Samstag

    Zeit Temperatur Niederschläge Wind Luftdruck Luftfeuchtigkeit
    00:00 -13°C° 0,2 mm 2 m/S 581 mmHg 86%
    01:00 -13°C° 0,2 mm 2 m/S 582 mmHg 86%
    02:00 -13°C° 0,2 mm 2 m/S 582 mmHg 88%
    03:00 -13°C° 0,2 mm 2 m/S 583 mmHg 90%
    04:00 -13°C° 0,2 mm 2 m/S 583 mmHg 92%
    05:00 -13°C° 0,2 mm 2 m/S 583 mmHg 92%
    06:00 -13°C° 0,2 mm 2 m/S 584 mmHg 93%
    07:00 -13°C° 0,2 mm 2 m/S 584 mmHg 93%
    08:00 -13°C° 0,1 mm 2 m/S 585 mmHg 92%
    09:00 -13°C° 0,1 mm 2 m/S 586 mmHg 91%
    10:00 -12°C° 0,1 mm 2 m/S 586 mmHg 90%
    11:00 -10°C° 0 mm 2 m/S 587 mmHg 86%
    12:00 -10°C° 0 mm 2 m/S 587 mmHg 82%
    13:00 -9°C° 0 mm 2 m/S 587 mmHg 78%
    14:00 -9°C° 0 mm 1 m/S 587 mmHg 81%
    15:00 -10°C° 0 mm 1 m/S 586 mmHg 85%
    16:00 -11°C° 0 mm 1 m/S 586 mmHg 88%
    17:00 -12°C° 0 mm 1 m/S 586 mmHg 88%
    18:00 -13°C° 0 mm 1 m/S 586 mmHg 89%
    19:00 -14°C° 0 mm 1 m/S 586 mmHg 89%
    20:00 -14°C° 0 mm 1 m/S 587 mmHg 88%
    21:00 -14°C° 0 mm 1 m/S 587 mmHg 88%
    22:00 -15°C° 0 mm 1 m/S 587 mmHg 87%
    23:00 -14°C° 0 mm 1 m/S 587 mmHg 86%

    17 Dezember, Sonntag

    Zeit Temperatur Niederschläge Wind Luftdruck Luftfeuchtigkeit
    00:00 -14°C° 0 mm 1 m/S 587 mmHg 85%
    01:00 -14°C° 0 mm 1 m/S 588 mmHg 84%
    02:00 -14°C° 0 mm 1 m/S 588 mmHg 84%
    03:00 -14°C° 0 mm 1 m/S 588 mmHg 84%
    04:00 -14°C° 0 mm 1 m/S 588 mmHg 84%
    05:00 -14°C° 0,1 mm 1 m/S 588 mmHg 85%
    06:00 -14°C° 0,1 mm 1 m/S 588 mmHg 86%
    07:00 -14°C° 0,1 mm 1 m/S 588 mmHg 87%
    08:00 -13°C° 0,1 mm 1 m/S 589 mmHg 87%
    09:00 -12°C° 0,1 mm 1 m/S 590 mmHg 88%
    10:00 -11°C° 0,1 mm 1 m/S 591 mmHg 88%
    11:00 -11°C° 0,1 mm 1 m/S 591 mmHg 87%
    12:00 -12°C° 0,1 mm 2 m/S 591 mmHg 86%
    13:00 -10°C° 0,1 mm 2 m/S 591 mmHg 85%
    14:00 -12°C° 0,2 mm 2 m/S 591 mmHg 87%
    15:00 -12°C° 0,2 mm 2 m/S 591 mmHg 90%
    16:00 -13°C° 0,2 mm 2 m/S 591 mmHg 92%
    17:00 -14°C° 0,1 mm 2 m/S 591 mmHg 93%
    18:00 -15°C° 0,1 mm 2 m/S 591 mmHg 93%
    19:00 -15°C° 0,1 mm 2 m/S 592 mmHg 93%
    20:00 -17°C° 0 mm 2 m/S 591 mmHg 92%
    21:00 -18°C° 0 mm 2 m/S 591 mmHg 91%
    22:00 -19°C° 0 mm 2 m/S 591 mmHg 89%
    23:00 -19°C° 0 mm 2 m/S 591 mmHg 87%
    Mehr zeigen